Regional Weather Roundup
Issued by NWS

Home | Current Version | Previous Version | Text Only | Print | Product List | Glossary On
Versions: 1 2 3 4 5 6 7 8 9 10 11 12 13 14 15 16 17 18 19 20 21 22 23 24 25 26 27 28 29 30 31 32 33 34 35 36 37 38 39 40 41 42 43 44 45 46 47 48 49 50
000
ASUS43 KTOP 280859
RWRKS

WEATHER ROUNDUP FOR KANSAS
NATIONAL WEATHER SERVICE GOODLAND KS
400 AM CDT THU JUL 28 2016

NOTE:  "FAIR" INDICATES FEW OR NO CLOUDS BELOW 12,000 FEET WITH NO
SIGNIFICANT WEATHER AND/OR OBSTRUCTIONS TO VISIBILITY.

KSZ001>006-013>018-027>032-041>047-281000-
NORTHWEST KANSAS

CITY           SKY/WX    TMP DP  RH WIND       PRES   REMARKS
GOODLAND       PTCLDY    62  59  90 CALM      30.15R
HAYS           CLOUDY    73  61  64 SW5G37    30.03F THUNDER
HILL CITY      CLOUDY    68  66  93 N5        30.05F
RUSSELL        CLOUDY    73  70  90 E5        30.00F
$$

KSZ061>065-074>080-084>089-281000-
SOUTHWEST KANSAS

CITY           SKY/WX    TMP DP  RH WIND       PRES   REMARKS
DODGE CITY     TSTM      68  62  81 NW16G24   30.11R
ELKHART          N/A     64  57  78 NE12        N/A
GARDEN CITY    CLOUDY    72  56  57 S9G44     30.05F THUNDER
GREAT BEND     MOCLDY    73  66  78 W8        30.02R
LIBERAL        CLOUDY    68  61  77 NE17      30.13F
$$

KSZ066>073-081>083-090>101-281000-
SOUTHEAST KANSAS

CITY           SKY/WX    TMP DP  RH WIND       PRES   REMARKS
CHANUTE        CLEAR     75  73  93 S3        29.94S
COFFEYVILLE    CLEAR     75  74  96 CALM      29.94S
HUTCHINSON     PTCLDY    72  69  90 CALM      29.98F
NEWTON         PTCLDY    73  71  93 NW3       29.99F
PARSONS        CLEAR     74  73  97 CALM      29.95S
WICHITA INTL   CLOUDY    75  71  87 SW3       29.97F
WICHITA JABRA  CLOUDY    76  73  91 SW6       29.97F
WINFIELD       CLEAR     73  70  90 CALM      29.98S
$$

KSZ007>012-019>026-033>040-048>060-102>105-281000-
NORTHEAST KANSAS

CITY           SKY/WX    TMP DP  RH WIND       PRES   REMARKS
CONCORDIA      PTCLDY    71  66  84 N5        30.00F
EMPORIA        MOCLDY    74  72  93 CALM      29.96F
LAWRENCE       MOCLDY    71  69  93 CALM      29.94S
MANHATTAN      CLEAR     71  68  90 CALM      29.96F
OLATHE IND     PTCLDY    73  71  93 W6        29.95S
OLATHE EXE     PTCLDY    75  70  84 W3        29.94S
SALINA         MOCLDY    76  69  79 CALM      29.98F
TOPEKA BILLARD PTCLDY    72  69  90 CALM      29.95S
TOPEKA FORBES  PTCLDY    74  70  87 N5        29.95F
$$




USA.gov is the U.S. government's official web portal to all federal, state and local government web resources and services.